period_start,C,m1,H,J0,J1,J2,J3,J4,J5,JA,JB,JC,JD,JJ,JK,JN,#
2014-12-12 00:03:00,0.24,5.65,0.00,20.79,25.79,29.00,4.99,27.13,1026.33,2033.00,1802.00,2082.54,2263.96,350.38,353.94,27.65,0000 0000 0000 0000 000000
2014-12-12 00:08:02,0.25,5.66,0.00,20.78,25.77,29.01,4.87,27.13,1026.32,2033.01,1800.77,2081.55,2262.78,349.97,353.48,27.68,0000 0000 0000 0000 000000
2014-12-12 00:13:03,0.23,5.67,0.00,20.77,25.77,29.01,4.90,27.16,1026.15,2033.02,1799.57,2080.60,2261.76,350.10,353.38,27.71,0000 0000 0000 0000 000000
2014-12-12 00:18:04,0.23,5.67,0.00,20.76,25.75,28.99,4.87,27.43,1026.21,2033.05,1798.21,2079.58,2260.73,349.52,353.08,27.74,0000 0000 0000 0000 000000
2014-12-12 00:23:05,0.26,5.68,0.00,20.77,25.75,29.00,4.89,27.21,1026.30,2033.06,1796.87,2078.51,2259.58,349.84,353.67,27.77,0000 0000 0000 0000 000000
2014-12-12 00:28:07,0.27,5.69,0.00,20.76,25.73,28.98,4.95,27.30,1026.36,2033.17,1795.65,2077.54,2258.55,349.96,354.12,27.80,0000 0000 0000 0000 000000
2014-12-12 00:33:08,0.22,5.70,0.00,20.73,25.72,28.95,4.83,27.22,1026.38,2033.21,1794.37,2076.52,2257.43,349.73,353.48,27.83,0000 0000 0000 0000 000000
2014-12-12 00:38:10,0.24,5.70,0.00,20.71,25.72,28.94,4.86,27.34,1026.38,2033.17,1792.96,2075.46,2256.36,350.12,353.72,27.86,0000 0000 0000 0000 000000
2014-12-12 00:43:11,0.31,5.71,0.00,20.70,25.70,28.94,4.94,27.18,1026.37,2033.45,1791.80,2074.44,2255.21,350.23,353.82,27.89,0000 0000 0000 0000 000000
2014-12-12 00:48:12,0.30,5.72,0.00,20.72,25.70,28.91,4.89,27.18,1026.29,2033.87,1790.58,2073.49,2254.19,349.35,353.16,27.92,0000 0000 0000 0000 000000
2014-12-12 00:53:13,0.23,5.73,0.00,20.68,25.68,28.91,4.90,27.08,1026.30,2033.86,1789.34,2072.49,2253.11,350.39,354.17,27.95,0000 0000 0000 0000 000000
2014-12-12 00:58:15,0.24,5.74,0.00,20.68,25.67,28.92,4.84,27.32,1026.30,2033.93,1788.10,2071.51,2252.01,349.84,353.51,27.97,0000 0000 0000 0000 000000
2014-12-12 01:03:16,0.24,5.74,0.00,20.64,25.67,28.90,4.78,26.99,1026.36,2033.97,1786.81,2070.57,2250.99,349.40,353.45,28.00,0000 0000 0000 0000 000000
2014-12-12 01:08:17,0.23,5.75,0.00,20.64,25.65,28.87,4.88,27.27,1026.26,2033.96,1785.60,2069.60,2249.93,349.92,353.50,28.03,0000 0000 0000 0000 000000
2014-12-12 01:13:18,0.22,5.76,0.00,20.63,25.65,28.90,4.90,27.29,1026.08,2033.98,1784.42,2068.66,2248.92,350.01,353.65,28.06,0000 0000 0000 0000 000000
2014-12-12 01:18:20,0.19,5.76,0.00,20.64,25.63,28.87,4.90,27.18,1026.19,2033.98,1783.29,2067.77,2247.98,350.01,353.91,28.09,0000 0000 0000 0000 000000
2014-12-12 01:23:21,0.19,5.77,0.00,20.61,25.62,28.86,4.90,27.28,1026.12,2033.99,1782.13,2066.88,2246.95,349.78,353.37,28.12,0000 0000 0000 0000 000000
2014-12-12 01:28:23,0.19,5.78,0.00,20.60,25.61,28.85,4.88,27.17,1026.11,2033.99,1781.09,2066.02,2246.01,350.26,354.06,28.15,0000 0000 0000 0000 000000
2014-12-12 01:33:24,0.25,5.78,0.00,20.62,25.60,28.83,4.80,27.20,1026.20,2033.99,1779.80,2065.08,2245.03,349.17,353.06,28.18,0000 0000 0000 0000 000000
2014-12-12 01:38:25,0.25,5.79,0.00,20.57,25.59,28.83,4.89,27.20,1025.96,2033.99,1778.55,2064.10,2243.93,349.83,353.76,28.21,0000 0000 0000 0000 000000
2014-12-12 01:43:27,0.21,5.80,0.00,20.57,25.57,28.80,4.91,27.35,1025.93,2033.99,1777.29,2063.08,2242.95,349.65,353.56,28.24,0000 0000 0000 0000 000000
2014-12-12 01:48:28,0.22,5.80,0.00,20.57,25.57,28.79,4.84,27.23,1025.93,2033.99,1776.23,2062.20,2241.94,350.05,353.88,28.27,0000 0000 0000 0000 000000
2014-12-12 01:53:29,0.21,5.81,0.00,20.54,25.55,28.79,4.87,27.04,1025.95,2034.00,1775.15,2061.32,2240.92,349.76,353.51,28.30,0000 0000 0000 0000 000000
2014-12-12 01:58:31,0.24,5.82,0.00,20.56,25.55,28.76,4.84,27.10,1026.00,2034.02,1773.93,2060.38,2239.94,349.66,353.67,28.33,0000 0000 0000 0000 000000
2014-12-12 02:03:32,0.23,5.82,0.00,20.57,25.52,28.74,4.92,27.15,1025.92,2034.01,1772.68,2059.46,2239.03,350.28,353.94,28.36,0000 0000 0000 0000 000000
2014-12-12 02:08:33,0.23,5.83,0.00,20.54,25.52,28.76,4.83,26.96,1025.93,2034.04,1771.48,2058.50,2238.07,349.79,353.64,28.39,0000 0000 0000 0000 000000
2014-12-12 02:13:34,0.22,5.84,0.00,20.56,25.51,28.74,4.85,27.03,1025.95,2034.04,1770.20,2057.55,2236.99,349.42,353.28,28.41,0000 0000 0000 0000 000000
2014-12-12 02:18:36,0.24,5.84,0.00,20.54,25.50,28.75,5.02,27.20,1025.91,2034.06,1768.89,2056.55,2235.94,350.15,353.95,28.44,0000 0000 0000 0000 000000
2014-12-12 02:23:37,0.27,5.85,0.00,20.54,25.50,28.74,4.93,27.01,1025.91,2034.14,1767.66,2055.56,2234.87,350.18,354.12,28.47,0000 0000 0000 0000 000000
2014-12-12 02:28:38,0.29,5.86,0.00,20.48,25.47,28.70,4.95,27.15,1025.91,2034.38,1766.46,2054.58,2233.79,350.47,354.31,28.50,0000 0000 0000 0000 000000
2014-12-12 02:33:39,0.25,5.87,0.00,20.42,25.47,28.72,4.88,26.93,1025.90,2034.51,1765.12,2053.56,2232.71,349.85,353.87,28.53,0000 0000 0000 0000 000000
2014-12-12 02:38:41,0.27,5.87,0.00,20.44,25.46,28.69,4.95,27.11,1025.91,2034.46,1763.76,2052.52,2231.58,350.31,353.97,28.56,0000 0000 0000 0000 000000
2014-12-12 02:43:42,0.29,5.88,0.00,20.45,25.45,28.67,4.85,26.88,1025.92,2034.58,1762.42,2051.40,2230.36,350.07,354.00,28.59,0000 0000 0000 0000 000000
2014-12-12 02:48:44,0.27,5.89,0.00,20.43,25.44,28.68,4.97,27.16,1025.93,2034.78,1761.32,2050.43,2229.26,350.46,354.42,28.62,0000 0000 0000 0000 000000
2014-12-12 02:53:45,0.20,5.90,0.00,20.43,25.42,28.65,4.81,27.03,1025.91,2034.90,1760.21,2049.57,2228.31,350.01,353.94,28.65,0000 0000 0000 0000 000000
2014-12-12 02:58:46,0.24,5.90,0.00,20.49,25.42,28.67,4.98,27.12,1025.94,2034.91,1758.92,2048.65,2227.30,350.90,355.00,28.68,0000 0000 0000 0000 000000
2014-12-12 03:03:47,0.23,5.91,0.00,20.52,25.41,28.68,4.84,27.18,1025.99,2034.95,1757.78,2047.62,2226.30,350.58,354.24,28.71,0000 0000 0000 0000 000000
2014-12-12 03:08:48,0.18,5.92,0.00,20.50,25.40,28.66,4.90,26.95,1026.14,2034.96,1756.64,2046.98,2225.23,350.00,354.12,28.74,0000 0000 0000 0000 000000
2014-12-12 03:13:50,0.23,5.92,0.00,20.48,25.39,28.65,4.90,26.91,1026.34,2034.98,1755.46,2046.15,2224.34,350.09,354.14,28.77,0000 0000 0000 0000 000000
2014-12-12 03:18:51,0.22,5.93,0.00,20.52,25.37,28.65,4.87,27.02,1026.36,2034.99,1754.33,2045.27,2223.37,350.16,354.05,28.79,0000 0000 0000 0000 000000
2014-12-12 03:23:52,0.23,5.94,0.00,20.52,25.37,28.63,4.89,26.89,1026.33,2034.99,1753.09,2044.33,2222.35,350.02,354.16,28.82,0000 0000 0000 0000 000000
2014-12-12 03:28:53,0.26,5.94,0.00,20.52,25.37,28.64,4.99,27.09,1026.35,2034.99,1751.76,2043.35,2221.24,350.43,354.41,28.85,0000 0000 0000 0000 000000
2014-12-12 03:33:54,0.25,5.95,0.00,20.48,25.35,28.61,4.92,27.15,1026.34,2034.99,1750.41,2042.24,2220.08,350.30,354.25,28.88,0000 0000 0000 0000 000000
2014-12-12 03:38:56,0.25,5.96,0.00,20.46,25.35,28.62,4.92,27.23,1026.37,2034.99,1748.98,2041.16,2218.88,349.96,354.10,28.91,0000 0000 0000 0000 000000
2014-12-12 03:43:56,0.24,5.97,0.00,20.46,25.35,28.62,4.83,26.98,1026.37,2034.99,1747.78,2040.17,2217.79,349.61,353.65,28.94,0000 0000 0000 0000 000000
2014-12-12 03:48:58,0.25,5.97,0.00,20.45,25.34,28.64,4.86,26.99,1026.31,2034.99,1746.53,2039.21,2216.70,350.03,354.32,28.97,0000 0000 0000 0000 000000
2014-12-12 03:53:59,0.23,5.98,0.00,20.46,25.33,28.58,4.87,27.17,1026.34,2034.99,1745.34,2038.18,2215.63,349.90,353.97,29.00,0000 0000 0000 0000 000000
2014-12-12 03:59:00,0.23,5.99,0.00,20.49,25.32,28.58,4.94,26.98,1026.37,2034.99,1744.16,2037.15,2214.49,350.31,354.14,29.03,0000 0000 0000 0000 000000
2014-12-12 04:04:02,0.25,6.00,0.00,20.49,25.32,28.61,4.83,27.14,1026.37,2035.00,1742.85,2036.16,2213.42,350.04,354.18,29.06,0000 0000 0000 0000 000000
2014-12-12 04:09:03,0.25,6.00,0.00,20.45,25.32,28.61,4.97,27.18,1026.38,2035.00,1741.58,2035.19,2212.35,350.22,354.08,29.09,0000 0000 0000 0000 000000
2014-12-12 04:14:04,0.23,6.01,0.00,20.48,25.30,28.58,4.86,27.06,1026.38,2035.00,1740.43,2034.17,2211.27,350.12,354.29,29.12,0000 0000 0000 0000 000000
2014-12-12 04:19:05,0.22,6.02,0.00,20.49,25.30,28.57,4.93,27.22,1026.38,2035.00,1739.17,2033.19,2210.19,349.87,353.96,29.15,0000 0000 0000 0000 000000
2014-12-12 04:24:07,0.23,6.02,0.00,20.47,25.30,28.55,4.91,26.94,1026.38,2035.00,1738.06,2032.26,2209.14,350.04,353.99,29.18,0000 0000 0000 0000 000000
2014-12-12 04:29:08,0.24,6.03,0.00,20.48,25.30,28.56,4.92,27.07,1026.38,2035.00,1736.79,2031.36,2208.09,350.33,354.31,29.21,0000 0000 0000 0000 000000
2014-12-12 04:34:09,0.26,6.04,0.00,20.49,25.29,28.56,4.81,27.08,1026.38,2035.00,1735.47,2030.32,2206.97,349.85,354.09,29.23,0000 0000 0000 0000 000000
2014-12-12 04:39:10,0.25,6.05,0.00,20.48,25.27,28.56,4.95,27.10,1026.38,2035.00,1734.12,2029.27,2205.83,350.30,354.35,29.26,0000 0000 0000 0000 000000
2014-12-12 04:44:12,0.23,6.05,0.00,20.49,25.27,28.58,4.94,26.97,1026.38,2035.00,1732.90,2028.25,2204.78,350.21,354.06,29.29,0000 0000 0000 0000 000000
2014-12-12 04:49:13,0.25,6.06,0.00,20.49,25.27,28.59,4.87,26.93,1026.38,2035.00,1731.72,2027.27,2203.72,349.81,354.02,29.32,0000 0000 0000 0000 000000
2014-12-12 04:54:14,0.23,6.07,0.00,20.52,25.27,28.58,4.90,26.94,1026.38,2035.01,1730.66,2026.30,2202.65,349.59,353.59,29.35,0000 0000 0000 0000 000000
2014-12-12 04:59:16,0.25,6.08,0.00,20.52,25.27,28.53,4.86,26.97,1026.38,2035.00,1729.37,2025.33,2201.52,349.72,353.83,29.38,0000 0000 0000 0000 000000
2014-12-12 05:04:17,0.23,6.08,0.00,20.52,25.26,28.53,5.00,27.00,1026.36,2035.01,1728.05,2024.37,2200.55,350.67,354.85,29.41,0000 0000 0000 0000 000000
2014-12-12 05:09:18,0.24,6.09,0.00,20.54,25.26,28.56,5.04,27.01,1026.38,2035.01,1726.88,2023.37,2199.44,350.61,354.77,29.44,0000 0000 0000 0000 000000
2014-12-12 05:14:19,0.22,6.10,0.00,20.51,25.25,28.54,4.89,26.98,1026.38,2035.01,1725.87,2022.38,2198.34,350.08,354.13,29.47,0000 0000 0000 0000 000000
2014-12-12 05:19:21,0.24,6.10,0.00,20.50,25.25,28.59,4.84,26.96,1026.38,2035.01,1724.73,2021.36,2197.19,350.11,354.16,29.50,0000 0000 0000 0000 000000
2014-12-12 05:24:22,0.25,6.11,0.00,20.50,25.25,28.58,4.85,27.02,1026.39,2035.01,1723.34,2020.36,2196.09,350.02,353.85,29.53,0000 0000 0000 0000 000000
2014-12-12 05:29:24,0.23,6.12,0.00,20.52,25.25,28.56,4.91,26.95,1026.39,2035.01,1722.02,2019.33,2195.02,350.02,354.02,29.56,0000 0000 0000 0000 000000
2014-12-12 05:34:25,0.28,6.13,0.00,20.51,25.25,28.56,4.96,27.13,1026.41,2035.00,1720.65,2018.31,2193.95,350.14,354.15,29.59,0000 0000 0000 0000 000000
2014-12-12 05:39:26,0.26,6.13,0.00,20.44,25.25,28.58,4.87,27.07,1026.42,2035.01,1719.37,2017.33,2192.78,349.47,353.60,29.62,0000 0000 0000 0000 000000
2014-12-12 05:44:28,0.23,6.14,0.00,20.40,25.25,28.58,4.88,27.01,1026.42,2035.02,1718.12,2016.30,2191.72,350.11,354.23,29.64,0000 0000 0000 0000 000000
2014-12-12 05:49:29,0.26,6.15,0.00,20.45,25.25,28.57,4.95,26.98,1026.41,2035.03,1716.93,2015.37,2190.59,350.42,354.35,29.67,0000 0000 0000 0000 000000
2014-12-12 05:54:31,0.27,6.16,0.00,20.44,25.24,28.59,4.94,27.03,1026.41,2035.01,1715.65,2014.17,2189.48,350.61,354.65,29.70,0000 0000 0000 0000 000000
2014-12-12 05:59:32,0.24,6.16,0.00,20.45,25.24,28.58,4.91,27.23,1026.41,2035.01,1714.29,2013.19,2188.42,349.76,353.92,29.73,0000 0000 0000 0000 000000
2014-12-12 06:04:33,0.24,6.17,0.00,20.40,25.23,28.56,4.85,27.28,1026.42,2035.04,1713.00,2012.17,2187.34,349.68,353.82,29.76,0000 0000 0000 0000 000000
2014-12-12 06:09:34,0.26,6.18,0.00,20.36,25.22,28.52,4.92,27.28,1026.44,2035.03,1711.75,2011.18,2186.25,350.17,354.22,29.79,0000 0000 0000 0000 000000
2014-12-12 06:14:36,0.26,6.19,0.00,20.36,25.22,28.52,4.95,27.23,1026.58,2035.05,1710.47,2010.13,2185.08,350.23,354.30,29.82,0000 0000 0000 0000 000000
2014-12-12 06:19:37,0.23,6.19,0.00,20.31,25.22,28.50,4.98,27.27,1026.67,2035.06,1709.14,2009.10,2184.01,350.08,354.33,29.85,0000 0000 0000 0000 000000
2014-12-12 06:24:39,0.26,6.20,0.00,20.37,25.22,28.52,4.90,27.18,1026.73,2035.08,1707.84,2008.13,2182.92,350.17,354.46,29.88,0000 0000 0000 0000 000000
2014-12-12 06:29:40,0.26,6.21,0.00,20.38,25.22,28.50,4.95,27.19,1026.65,2035.13,1706.71,2007.20,2181.85,350.22,354.48,29.91,0000 0000 0000 0000 000000
2014-12-12 06:34:41,0.25,6.22,0.00,20.39,25.21,28.52,5.03,27.16,1026.64,2035.07,1705.46,2006.11,2180.73,350.34,354.58,29.94,0000 0000 0000 0000 000000
2014-12-12 06:39:43,0.25,6.22,0.00,20.38,25.20,28.52,4.88,27.19,1026.82,2035.05,1704.03,2005.07,2179.58,350.03,354.21,29.97,0000 0000 0000 0000 000000
2014-12-12 06:44:44,0.29,6.23,0.00,20.36,25.20,28.53,4.92,27.14,1026.86,2035.16,1702.80,2004.10,2178.58,350.38,354.87,30.00,0000 0000 0000 0000 000000
2014-12-12 06:49:45,0.29,6.24,0.00,20.35,25.20,28.50,4.98,27.30,1026.85,2035.27,1701.55,2003.14,2177.44,350.36,354.73,30.03,0000 0000 0000 0000 000000
2014-12-12 06:54:46,0.22,6.25,0.00,20.37,25.20,28.50,4.96,27.21,1026.82,2035.26,1700.36,2002.11,2176.41,350.07,354.36,30.05,0000 0000 0000 0000 000000
2014-12-12 06:59:48,0.23,6.25,0.00,20.31,25.18,28.47,4.89,27.17,1026.83,2035.23,1699.09,2001.09,2175.28,349.82,354.25,30.08,0000 0000 0000 0000 000000
2014-12-12 07:04:49,0.28,6.26,0.00,20.30,25.17,28.46,4.79,27.04,1026.85,2035.28,1697.84,2000.12,2174.35,349.66,354.14,30.11,0000 0000 0000 0000 000000
2014-12-12 07:09:50,0.29,6.27,0.00,20.26,25.17,28.47,5.01,27.29,1026.87,2035.45,1696.62,1999.13,2173.20,350.28,354.72,30.14,0000 0000 0000 0000 000000
2014-12-12 07:14:51,0.25,6.28,0.00,20.26,25.17,28.46,4.82,27.23,1026.87,2035.51,1695.32,1998.08,2172.07,350.03,354.50,30.17,0000 0000 0000 0000 000000
2014-12-12 07:19:53,0.24,6.29,0.00,20.27,25.17,28.44,4.92,27.27,1026.87,2035.41,1693.92,1997.04,2170.97,349.86,354.34,30.20,0000 0000 0000 0000 000000
2014-12-12 07:24:54,0.30,6.29,0.00,20.25,25.15,28.45,4.88,27.41,1026.88,2035.58,1692.66,1996.02,2169.83,349.64,354.24,30.23,0000 0000 0000 0000 000000
2014-12-12 07:29:55,0.26,6.30,0.00,20.22,25.15,28.43,4.94,27.32,1026.88,2035.55,1691.44,1995.00,2168.73,349.83,354.54,30.26,0000 0000 0000 0000 000000
2014-12-12 07:34:56,0.27,6.31,0.00,20.17,25.15,28.41,4.89,27.24,1026.89,2035.65,1690.14,1993.95,2167.63,349.84,354.45,30.29,0000 0000 0000 0000 000000
2014-12-12 07:39:58,0.31,6.32,0.00,20.18,25.13,28.40,4.79,27.26,1026.99,2035.75,1688.80,1993.01,2166.51,349.62,354.16,30.32,0000 0000 0000 0000 000000
2014-12-12 07:44:59,0.27,6.33,0.00,20.23,25.12,28.43,4.89,27.32,1027.02,2035.94,1687.63,1992.02,2165.54,350.48,355.12,30.35,0000 0000 0000 0000 000000
2014-12-12 07:50:00,0.25,6.33,0.00,20.19,25.12,28.43,4.87,27.23,1027.05,2035.96,1686.42,1991.04,2164.43,349.92,354.51,30.38,0000 0000 0000 0000 000000
2014-12-12 07:55:02,0.23,6.34,0.00,20.22,25.11,28.39,4.91,27.28,1026.98,2035.98,1685.22,1990.08,2163.41,349.83,354.36,30.41,0000 0000 0000 0000 000000
2014-12-12 08:00:03,0.25,6.35,0.00,20.23,25.10,28.37,4.93,27.33,1027.04,2035.98,1683.95,1989.12,2162.27,349.55,354.13,30.44,0000 0000 0000 0000 000000
2014-12-12 08:05:04,0.27,6.36,0.00,20.21,25.10,28.40,4.91,27.36,1027.28,2035.98,1682.69,1988.17,2161.31,349.93,354.66,30.46,0000 0000 0000 0000 000000
2014-12-12 08:10:06,0.23,6.36,0.00,20.17,25.09,28.38,4.95,27.27,1027.34,2035.98,1681.56,1987.19,2160.29,349.84,354.23,30.49,0000 0000 0000 0000 000000
2014-12-12 08:15:07,0.23,6.37,0.00,20.19,25.07,28.37,4.89,27.33,1027.28,2035.98,1680.36,1986.26,2159.30,350.11,354.97,30.52,0000 0000 0000 0000 000000
2014-12-12 08:20:08,0.24,6.38,0.00,20.16,25.07,28.37,4.89,27.36,1027.30,2035.99,1679.11,1985.29,2158.19,349.59,354.52,30.55,0000 0000 0000 0000 000000
2014-12-12 08:25:10,0.24,6.38,0.00,20.17,25.07,28.35,4.85,27.34,1027.31,2035.99,1677.99,1984.40,2157.20,350.33,354.98,30.58,0000 0000 0000 0000 000000
2014-12-12 08:30:11,0.23,6.39,0.00,20.18,25.05,28.31,4.87,27.42,1027.35,2035.99,1676.84,1983.62,2156.21,349.80,354.35,30.61,0000 0000 0000 0000 000000
2014-12-12 08:35:12,0.26,6.40,0.00,20.14,25.05,28.33,4.90,27.40,1027.32,2035.98,1675.59,1982.64,2155.10,350.09,354.78,30.64,0000 0000 0000 0000 000000
2014-12-12 08:40:14,0.22,6.40,0.00,20.19,25.05,28.33,4.89,27.38,1027.23,2035.99,1674.48,1981.72,2154.07,350.03,354.75,30.67,0000 0000 0000 0000 000000
2014-12-12 08:45:15,0.22,6.41,0.00,20.22,25.04,28.36,4.91,27.30,1027.14,2035.99,1673.35,1980.82,2153.05,349.93,354.59,30.70,0000 0000 0000 0000 000000
2014-12-12 08:50:16,0.20,6.42,0.00,20.23,25.02,28.34,4.85,27.07,1027.21,2035.99,1672.22,1979.96,2152.08,349.77,354.42,30.73,0000 0000 0000 0000 000000
2014-12-12 08:55:18,0.23,6.43,0.00,20.19,25.02,28.35,4.86,27.19,1027.35,2035.99,1671.18,1979.05,2151.15,349.83,354.46,30.76,0000 0000 0000 0000 000000
2014-12-12 09:00:19,0.24,6.43,0.00,20.22,25.02,28.34,4.86,27.22,1027.36,2035.99,1669.95,1978.11,2150.14,349.75,354.72,30.79,0000 0000 0000 0000 000000
2014-12-12 09:05:20,0.25,6.44,0.00,20.21,25.02,28.33,5.03,27.16,1027.36,2035.99,1668.79,1977.18,2149.13,350.28,354.87,30.82,0000 0000 0000 0000 000000
2014-12-12 09:10:21,0.22,6.45,0.00,20.22,25.00,28.32,4.87,27.24,1027.36,2035.99,1667.79,1976.29,2148.13,349.82,354.65,30.85,0000 0000 0000 0000 000000
2014-12-12 09:15:22,0.26,6.45,0.00,20.23,25.00,28.28,4.93,27.32,1027.36,2035.99,1666.57,1975.40,2147.14,350.29,354.97,30.88,0000 0000 0000 0000 000000
2014-12-12 09:20:23,0.22,6.46,0.00,20.26,25.00,28.32,4.89,27.26,1027.36,2035.99,1665.55,1974.50,2146.20,350.15,355.01,30.90,0000 0000 0000 0000 000000
2014-12-12 09:25:25,0.23,6.47,0.00,20.26,25.00,28.29,4.83,27.26,1027.36,2035.99,1664.41,1973.62,2145.17,349.96,354.61,30.93,0000 0000 0000 0000 000000
2014-12-12 09:30:26,0.22,6.48,0.00,20.29,25.00,28.30,4.97,27.27,1027.36,2036.00,1663.18,1972.72,2144.21,350.01,354.87,30.96,0000 0000 0000 0000 000000
2014-12-12 09:35:27,0.21,6.48,0.00,20.28,24.99,28.33,4.88,27.24,1027.36,2036.00,1662.25,1971.82,2143.28,349.87,354.46,30.99,0000 0000 0000 0000 000000
2014-12-12 09:40:29,0.22,6.49,0.00,20.28,24.98,28.32,4.97,27.35,1027.36,2036.00,1661.07,1970.89,2142.24,350.59,355.26,31.02,0000 0000 0000 0000 000000
2014-12-12 09:45:30,0.23,6.50,0.00,20.26,24.97,28.30,4.87,27.33,1027.36,2036.00,1659.95,1969.99,2141.25,349.77,354.60,31.05,0000 0000 0000 0000 000000
2014-12-12 09:50:31,0.24,6.50,0.00,20.27,24.97,28.30,4.90,27.35,1027.36,2036.00,1658.85,1969.10,2140.29,350.05,354.62,31.08,0000 0000 0000 0000 000000
2014-12-12 09:55:32,0.24,6.51,0.00,20.23,24.97,28.31,4.98,27.38,1027.36,2036.01,1657.77,1968.21,2139.36,349.80,354.33,31.11,0000 0000 0000 0000 000000
2014-12-12 10:00:34,0.23,6.52,0.00,20.23,24.97,28.29,4.91,27.35,1027.37,2036.01,1656.73,1967.44,2138.39,350.19,354.87,31.14,0000 0000 0000 0000 000000
2014-12-12 10:05:35,0.23,6.52,0.00,20.24,24.97,28.28,4.87,27.41,1027.38,2036.02,1655.77,1966.51,2137.40,349.75,354.47,31.17,0000 0000 0000 0000 000000
2014-12-12 10:10:36,0.24,6.53,0.00,20.23,24.97,28.29,4.88,27.33,1027.36,2036.01,1654.61,1965.64,2136.40,350.08,354.91,31.20,0000 0000 0000 0000 000000
2014-12-12 10:15:37,0.22,6.54,0.00,20.22,24.97,28.31,4.94,27.43,1027.38,2036.01,1653.47,1964.75,2135.52,350.24,354.73,31.23,0000 0000 0000 0000 000000
2014-12-12 10:20:38,0.20,6.54,0.00,20.23,24.97,28.30,4.97,27.48,1027.38,2036.02,1652.31,1963.90,2134.48,350.17,354.77,31.26,0000 0000 0000 0000 000000
2014-12-12 10:25:40,0.24,6.55,0.00,20.22,24.97,28.30,4.85,27.41,1027.37,2036.03,1651.26,1962.95,2133.55,349.97,354.70,31.29,0000 0000 0000 0000 000000
2014-12-12 10:30:41,0.22,6.56,0.00,20.25,24.97,28.34,4.89,27.43,1027.36,2036.03,1650.16,1962.04,2132.58,349.86,354.67,31.31,0000 0000 0000 0000 000000
2014-12-12 10:35:42,0.23,6.56,0.00,20.25,24.97,28.31,4.96,27.40,1027.36,2036.05,1649.06,1961.14,2131.68,350.16,354.88,31.34,0000 0000 0000 0000 000000
2014-12-12 10:40:44,0.23,6.57,0.00,20.27,24.97,28.29,4.90,27.53,1027.36,2036.01,1648.06,1960.20,2130.57,349.98,354.61,31.37,0000 0000 0000 0000 000000
2014-12-12 10:45:45,0.21,6.58,0.00,20.28,24.97,28.29,4.88,27.40,1027.36,2036.00,1647.03,1959.44,2129.71,349.85,354.42,31.40,0000 0000 0000 0000 000000
2014-12-12 10:50:46,0.25,6.58,0.00,20.28,24.97,28.29,4.84,27.40,1027.36,2036.00,1645.91,1958.54,2128.72,349.73,354.38,31.43,0000 0000 0000 0000 000000
2014-12-12 10:55:47,0.23,6.59,0.00,20.27,24.97,28.29,4.94,27.48,1027.36,2036.01,1644.73,1957.69,2127.85,350.07,354.69,31.46,0000 0000 0000 0000 000000
2014-12-12 11:00:48,0.17,6.60,0.00,20.27,24.97,28.29,4.86,27.35,1027.36,2036.01,1643.72,1956.93,2126.98,350.34,355.16,31.49,0000 0000 0000 0000 000000
2014-12-12 11:05:50,0.22,6.60,0.00,20.27,24.97,28.30,4.90,27.39,1027.33,2036.01,1642.72,1956.06,2126.05,350.73,355.37,31.52,0000 0000 0000 0000 000000
2014-12-12 11:10:51,0.22,6.61,0.00,20.23,24.97,28.29,5.03,27.40,1027.27,2036.01,1641.76,1955.17,2125.10,350.65,355.00,31.55,0000 0000 0000 0000 000000
2014-12-12 11:15:52,0.22,6.62,0.00,20.25,24.97,28.31,4.96,27.34,1027.20,2036.01,1640.78,1954.32,2124.16,349.90,354.46,31.58,0000 0000 0000 0000 000000
2014-12-12 11:20:53,0.22,6.62,0.00,20.23,24.97,28.27,4.87,27.36,1027.12,2036.01,1639.77,1953.55,2123.26,350.00,354.59,31.61,0000 0000 0000 0000 000000
2014-12-12 11:25:55,0.23,6.63,0.00,20.25,24.97,28.28,4.92,27.50,1027.29,2036.01,1638.54,1952.77,2122.38,349.71,354.01,31.64,0000 0000 0000 0000 000000
2014-12-12 11:30:57,0.20,6.63,0.00,20.24,24.96,28.29,4.94,27.51,1027.35,2036.01,1637.58,1951.98,2121.55,350.45,355.12,31.67,0000 0000 0000 0000 000000
2014-12-12 11:35:58,0.22,6.64,0.00,20.23,24.96,28.27,4.89,27.47,1027.36,2036.00,1636.57,1951.08,2120.66,349.70,354.37,31.70,0000 0000 0000 0000 000000
2014-12-12 11:40:59,0.25,6.65,0.00,20.25,24.95,28.27,4.88,27.46,1027.36,2036.00,1635.32,1950.12,2119.68,349.93,354.47,31.72,0000 0000 0000 0000 000000
2014-12-12 11:46:01,0.21,6.65,0.00,20.23,24.95,28.28,4.87,27.38,1027.36,2036.00,1634.49,1949.29,2118.80,349.90,354.57,31.75,0000 0000 0000 0000 000000
2014-12-12 11:51:02,0.22,6.66,0.00,20.21,24.95,28.28,4.90,27.38,1027.36,2036.01,1633.42,1948.49,2117.89,350.42,355.01,31.78,0000 0000 0000 0000 000000
2014-12-12 11:56:03,0.19,6.67,0.00,20.20,24.95,28.27,4.93,27.53,1027.34,2036.01,1632.48,1947.72,2117.02,350.16,354.87,31.81,0000 0000 0000 0000 000000
2014-12-12 12:01:04,0.22,6.67,0.00,20.23,24.95,28.26,4.93,27.38,1027.29,2036.01,1631.38,1946.85,2116.09,350.08,354.71,31.84,0000 0000 0000 0000 000000
2014-12-12 12:06:06,0.22,6.68,0.00,20.23,24.95,28.28,4.85,27.49,1027.28,2036.01,1630.22,1945.97,2115.09,349.84,354.44,31.87,0000 0000 0000 0000 000000
2014-12-12 12:11:07,0.23,6.69,0.00,20.22,24.95,28.29,4.92,27.45,1027.34,2036.01,1629.19,1945.07,2114.17,350.27,354.98,31.90,0000 0000 0000 0000 000000
2014-12-12 12:16:08,0.24,6.69,0.00,20.23,24.95,28.27,4.93,27.45,1027.33,2036.01,1628.16,1944.24,2113.30,349.72,354.34,31.93,0000 0000 0000 0000 000000
2014-12-12 12:21:10,0.23,6.70,0.00,20.22,24.95,28.27,4.90,27.48,1027.32,2036.01,1627.25,1943.46,2112.37,349.54,354.21,31.96,0000 0000 0000 0000 000000
2014-12-12 12:26:11,0.22,6.71,0.00,20.20,24.95,28.27,4.93,27.43,1027.23,2036.02,1626.15,1942.62,2111.41,350.17,354.86,31.99,0000 0000 0000 0000 000000
2014-12-12 12:31:12,0.21,6.71,0.00,20.15,24.95,28.30,4.92,27.46,1027.34,2036.01,1625.14,1941.73,2110.67,349.85,354.61,32.02,0000 0000 0000 0000 000000
2014-12-12 12:36:13,0.20,6.72,0.00,20.19,24.95,28.28,4.92,27.54,1027.33,2036.01,1624.08,1940.90,2109.74,349.87,354.58,32.05,0000 0000 0000 0000 000000
2014-12-12 12:41:15,0.23,6.73,0.00,20.22,24.95,28.28,4.85,27.42,1027.28,2036.00,1622.96,1940.01,2108.78,349.88,354.71,32.08,0000 0000 0000 0000 000000
2014-12-12 12:46:16,0.22,6.74,0.00,20.21,24.95,28.25,4.92,27.52,1027.14,2036.00,1621.96,1939.11,2107.95,350.07,354.70,32.11,0000 0000 0000 0000 000000
2014-12-12 12:51:17,0.23,6.74,0.00,20.22,24.95,28.28,4.86,27.44,1027.19,2036.01,1620.96,1938.40,2107.08,349.67,354.42,32.13,0000 0000 0000 0000 000000
2014-12-12 12:56:19,0.23,6.75,0.00,20.22,24.95,28.27,4.90,27.39,1027.24,2036.01,1619.92,1937.55,2106.13,350.46,354.98,32.16,0000 0000 0000 0000 000000
2014-12-12 13:01:20,0.23,6.75,0.00,20.21,24.95,28.25,4.97,27.39,1027.06,2036.00,1618.87,1936.66,2105.16,350.95,355.56,32.19,0000 0000 0000 0000 000000